CDT,Max TemperatureF,Mean TemperatureF,Min TemperatureF,Max Dew PointF,MeanDew PointF,Min DewpointF,Max Humidity, Mean Humidity, Min Humidity, Max Sea Level PressureIn, Mean Sea Level PressureIn, Min Sea Level PressureIn, Max VisibilityMiles, Mean VisibilityMiles, Min VisibilityMiles, Max Wind SpeedMPH, Mean Wind SpeedMPH, Max Gust SpeedMPH,PrecipitationIn, CloudCover, Events, WindDirDegrees
2012-10-1,73,60,48,43,37,32,62,41,25,29.94,29.89,29.84,10,10,4,21,9,29,0.00,0,,321
2012-10-2,75,56,37,41,29,16,76,41,11,29.97,29.91,29.85,10,9,2,9,3,,0.00,0,,149
2012-10-3,80,63,46,45,34,19,76,39,10,29.92,29.88,29.83,10,9,5,15,6,18,0.00,0,,145
2012-10-4,66,55,44,37,30,23,58,43,27,30.18,30.03,29.83,10,10,10,30,18,37,0.00,4,,266
2012-10-5,51,43,35,28,20,16,61,41,24,30.18,30.15,30.11,10,10,10,30,16,34,0.00,2,,289
2012-10-6,44,40,35,28,21,14,65,48,29,30.26,30.21,30.14,10,10,7,21,12,25,0.00,7,,302
2012-10-7,55,40,24,21,12,-6,69,37,8,30.22,30.09,29.91,10,10,10,18,7,25,0.00,0,,206
2012-10-8,71,56,41,45,22,1,72,33,6,29.90,29.76,29.63,10,10,7,26,13,37,0.03,4,Rain,193
2012-10-9,53,46,39,46,33,19,82,56,32,29.99,29.83,29.74,10,10,7,25,12,33,0.05,6,Rain,262
2012-10-10,55,42,28,27,18,9,75,40,15,30.12,30.03,29.89,10,10,7,17,9,25,0.00,2,,239
2012-10-11,57,42,28,30,17,0,53,32,13,30.37,30.09,29.83,10,10,10,24,14,33,0.00,1,,309
2012-10-12,55,38,21,21,8,-9,74,36,7,30.42,30.30,30.03,10,10,10,17,5,25,0.00,1,,144
2012-10-13,64,56,48,57,48,18,82,74,26,30.03,29.77,29.65,10,6,0,22,12,29,0.04,8,Rain-Thunderstorm,155
2012-10-14,60,54,48,50,38,25,82,60,25,29.88,29.75,29.67,10,8,1,22,13,30,0.00,5,,336
2012-10-15,66,50,33,36,30,21,81,47,18,29.97,29.88,29.76,10,10,10,17,5,23,0.00,0,,204
2012-10-16,69,60,50,46,42,36,76,55,38,29.76,29.52,29.36,10,10,7,23,13,30,0.03,2,Rain-Thunderstorm,151
2012-10-17,64,56,46,48,41,30,76,58,30,29.36,29.29,29.21,10,10,7,25,12,31,0.00,5,Rain,215
2012-10-18,48,46,42,41,39,37,81,76,66,29.37,29.26,29.18,10,7,2,15,9,20,0.02,8,Rain,263
2012-10-19,53,46,35,46,40,30,87,79,67,29.73,29.57,29.38,10,6,0,12,2,,0.16,6,Rain,333
2012-10-20,53,46,39,43,40,34,87,75,62,29.83,29.79,29.74,10,6,0,12,5,,0.00,7,,195
2012-10-21,73,60,48,50,43,39,76,58,35,29.89,29.80,29.75,10,10,10,28,12,33,0.00,0,,160
2012-10-22,64,56,48,52,48,43,82,68,56,29.89,29.87,29.82,10,9,5,16,6,22,0.00,5,Thunderstorm,66
2012-10-23,69,64,60,61,57,54,83,75,64,29.82,29.75,29.69,7,4,2,15,9,17,0.02,6,Rain-Thunderstorm,158
2012-10-24,64,58,53,57,53,46,82,77,72,29.84,29.78,29.71,7,4,1,16,6,17,0.21,7,Rain-Thunderstorm,353
2012-10-25,53,45,37,46,34,21,82,73,49,30.17,29.85,29.63,10,8,1,28,17,36,0.57,8,Rain-Thunderstorm,317
2012-10-26,42,38,33,27,22,18,65,54,39,30.37,30.32,30.19,10,10,10,21,12,28,0.00,5,,274
2012-10-27,44,36,28,27,20,10,80,55,25,30.37,30.32,30.28,10,10,10,8,3,,0.00,1,,221
2012-10-28,48,37,26,23,18,10,75,49,22,30.34,30.30,30.26,10,10,10,14,5,17,0.00,2,,147
2012-10-29,48,39,30,27,22,18,65,48,34,30.30,30.26,30.21,10,10,10,15,7,18,0.00,3,,126
2012-10-30,51,40,28,27,22,18,75,52,28,30.21,30.12,30.04,10,10,10,14,5,17,0.00,0,,22
2012-10-31,53,36,19,28,15,-2,74,47,11,30.05,29.99,29.92,10,10,7,13,3,18,0.00,1,,306